{"data":{"norad_id":53804,"intl_designator":"2022-111AH","name":"STARLINK-4729","alt_names":[],"object_type":"PAYLOAD","status":"ACTIVE","operator":null,"country":"US","launch_date":"2022-09-11","launch_site_code":"AFETR","launch_vehicle":null,"mission":null,"orbit_class":"UNKNOWN","rcs_meters":null,"size_class":null,"mass_kg":null,"dimensions":null,"purposes":["comms"],"wikipedia_slug":null,"has_3d_model":false,"image_url":null,"decayed_at":null,"tle_current":{"epoch":"2026-09-20T19:39:05.078592Z","epoch_age_seconds":56312,"freshness":"FRESH","line1":"1 53804U 22111AH  26263.81880878  .00000265  00000+0  18973-4 0  9998","line2":"2 53804  53.1605  89.9002 0001247  88.1839 271.9306 15.34392814223523","mean_motion":15.34392814,"eccentricity":0.0001247,"inclination_deg":53.1605,"raan_deg":89.9002,"arg_perigee_deg":88.1839,"mean_anomaly_deg":271.9306,"bstar":1.8973e-5,"rev_number":22352,"period_min":93.848197597203,"perigee_km":461.8715431555,"apogee_km":463.57765403819,"semimajor_km":6840.8615985968,"source":"CELESTRAK","updated_at":"2026-09-21T09:00:32.996825Z"}}}